Skip Page Navigation
NASA JPL Caltech
NASA Logo - Jet Propulsion Laboratory + View the NASA Portal
+ Center for Near-Earth Object Studies
JPL Home Earth Solar System Stars & Galaxies Technology
JPL Solar System Dynamics
BODIES ORBITS EPHEMERIDES TOOLS PHYSICAL DATA DISCOVERY FAQ SITE MAP
IMPORTANT: The SSD Announcement email list is now available. Major changes are coming in the near future, including possible hostname and/or URL changes. To be notified of such changes, subscribe to this email list.

Please visit this page for more details.


JPL Small-Body Database Browser
Search: [ help ]  
1459 Magnya (1937 VA)
Classification: Main-belt Asteroid          SPK-ID: 2001459
Ephemeris | Orbit Diagram | Orbital Elements | Mission Design | Physical Parameters | Discovery Circumstances | Close-Approach Data ]

[ hide orbit diagram ]

For accurate long-term ephemerides, please instead use our Horizons system.This orbit viewer was implemented using two-body methods, and hence should not be used for determining accurate long-term trajectories (over several years or decades) or planetary encounter circumstances.


[ revert to old Java-based viewer ]

Orbital Elements at Epoch 2458600.5 (2019-Apr-27.0) TDB
Reference: JPL 31 (heliocentric ecliptic J2000)
 Element Value Uncertainty (1-sigma)   Units 
e .231455811296745 4.5016e-08  
a 3.147734588370616 1.5656e-08 au
q 2.41917312547247 1.4078e-07 au
i 16.93106687965919 4.6704e-06 deg
node 41.5481801150326 1.5069e-05 deg
peri 328.6684174112123 1.7656e-05 deg
M 227.734355490519 1.2452e-05 deg
tp 2459349.945641090286
(2021-May-15.44564109)
7.43e-05 TDB
period 2039.837569257552
5.58
1.5219e-05
4.167e-08
d
yr
n .1764846404564608 1.3167e-09 deg/d
Q 3.876296051268763 1.928e-08 au
  Orbit Determination Parameters
   # obs. used (total)      2436  
   data-arc span      29866 days (81.77 yr)  
   first obs. used      1937-11-06  
   last obs. used      2019-08-14  
   planetary ephem.      DE431  
   SB-pert. ephem.      SB431-N16  
   condition code      0  
   norm. resid. RMS      .43205  
   source      ORB  
   producer      Otto Matic  
   solution date      2019-Sep-23 19:17:47  

Additional Information
 Earth MOID = 1.4361 au 
 Jupiter MOID = 1.63888 au 
 T_jup = 3.101 
[ hide covariance matrix ]
Orbital Elements at Epoch 2456311.5 (2013-Jan-19.0) TDB
Reference: JPL 31 (heliocentric ecliptic J2000)
 Element Value Uncertainty (1-sigma)   Units 
e .2341482284359389 4.4938e-08  
q 2.407387683254373 1.4026e-07 au
tp 2457313.257521042713
(2015-Oct-17.75752104)
6.4028e-05 TDB
node 41.55682319561467 1.5066e-05 deg
peri 328.9463547365086 1.7584e-05 deg
i 16.94540719293685 4.6746e-06 deg
  Orbit Determination Parameters
   # obs. used (total)      2436  
   data-arc span      29866 days (81.77 yr)  
   first obs. used      1937-11-06  
   last obs. used      2019-08-14  
   planetary ephem.      DE431  
   SB-pert. ephem.      SB431-N16  
   condition code      0  
   norm. resid. RMS      .43205  
   source      ORB  
   producer      Otto Matic  
   solution date      2019-Sep-23 19:17:47  

Additional Information
 Jupiter MOID = 1.63888 au 
 T_jup = 3.101 
Orbit Covariance (6×6)
  e q tp node peri i
e 2.019410390377791E-15 -6.279441776122838E-15 4.721368573482075E-13 -4.488815851110117E-15 2.0816486929046E-14 1.099345798258127E-15
q -6.279441776122838E-15 1.967228528066794E-14 -1.078226984952785E-12 1.577398803832143E-14 -2.311632901055505E-14 -4.040321664884048E-15
tp 4.721368573482075E-13 -1.078226984952785E-12 4.099558952490429E-9 1.704873650024587E-12 6.016026905912733E-10 -6.321895747376547E-12
node -4.488815851110117E-15 1.577398803832143E-14 1.704873650024587E-12 2.269786166197712E-10 -2.164004340586174E-10 -8.700404528014367E-12
peri 2.0816486929046E-14 -2.311632901055505E-14 6.016026905912733E-10 -2.164004340586174E-10 3.091939590190261E-10 7.284453451557171E-12
i 1.099345798258127E-15 -4.040321664884048E-15 -6.321895747376547E-12 -8.700404528014367E-12 7.284453451557171E-12 2.185208929880161E-11

Ephemeris | Orbit Diagram | Orbital Elements | Mission Design | Physical Parameters | Discovery Circumstances | Close-Approach Data ]

Physical Parameter Table
Parameter Symbol Value Units Sigma Reference Notes
absolute magnitude H 10.3   n/a MPO435710  
diameter diameter 29.188 km 1.833 urn:nasa:pds:neowise_diameters_albedos::2.0[mainbelt] (http://adsabs.harvard.edu/abs/2012ApJ...759L...8M)  
rotation period rot_per 4.678 h n/a LCDB (Rev. 2019-January); Warner et al., 2009 Published Reference List:
[Almeida, R.; Angeli, C.A.; Duffard, R.; Lazzaro, D. (2004) Astron. Astrophys. 415, 403-406.]
[Behrend, R. (2005) Observatoire de Geneve web site, http://obswww.unige.ch/~behrend/page_cou.html]
[Delbo, M.; Gai, M.; Lattanzi, M.G.; Ligori, S.; et al. (2006) Icarus 181, 618-622.]
[Licchelli, D. (2006) Minor Planet Bull. 33, 11-13.]
[Silva, J.S.; Lzzaro, D. (2015) Astron. Astrophys. 580, A70.]
[Durech, J.; Hanus, J.; Oszkiewsicz, D.; Vanco, R. (2016) Astron. Astrophys. 587, A48.]
[Hanus, J.; Durech, J.; Oszkiewicz, D.A.; Behrend, R.; et al. (2016) Astron. Astrophys. 586, A108.]
geometric albedo albedo 0.909   0.224 urn:nasa:pds:neowise_diameters_albedos::2.0[mainbelt] (http://adsabs.harvard.edu/abs/2012ApJ...759L...8M)  

1459 Magnya (1937 VA)          Discovered 1937-Nov-04 by Neujmin, G. at Simeis
Independent discovery Nov. 6 by A. Patry, Nice, was announced first.
Reference: DISCOVERY.DBLast Updated: 2003-08-29

[ show close-approach data ]
Ephemeris | Orbit Diagram | Orbital Elements | Mission Design | Physical Parameters | Discovery Circumstances | Close-Approach Data ]
ABOUT SSD CREDITS/AWARDS PRIVACY/COPYRIGHT GLOSSARY LINKS
FirstGov 2020-Jan-20 15:21 UT
(server date/time)  
NASA Home Page
Site Manager:   Ryan S. Park
Webmaster  Alan B. Chamberlin